Regional Weather Roundup
Issued by NWS

Home | Current Version | Previous Version | Text Only | Print | Product List | Glossary Off
Versions: 1 2 3 4 5 6 7 8 9 10 11 12 13 14 15 16 17 18 19 20 21 22 23 24 25 26 27 28 29 30 31 32 33 34 35 36 37 38 39 40 41 42 43 44 45 46 47 48 49 50

000
ASUS43 KBIS 180010
RWRND

NORTH DAKOTA REGIONAL WEATHER ROUNDUP
NATIONAL WEATHER SERVICE BISMARCK ND
700 PM CDT WED SEP 17 2014

NOTE: "FAIR" INDICATES FEW OR NO CLOUDS BELOW 12,000 FEET WITH NO
SIGNIFICANT WEATHER AND/OR OBSTRUCTIONS TO VISIBILITY.


NDZ001>003-009>011-017-180100-
NORTHWEST NORTH DAKOTA

CITY           SKY/WX    TMP DP  RH WIND       PRES   REMARKS
WILLISTON      CLEAR     73  43  33 SE9       29.91F
6HR MIN TEMP:  73; 6HR MAX TEMP:  79;

MINOT          CLEAR     64  48  56 E9        29.97S
MINOT AFB      CLEAR     64  50  60 E12       29.97S
$$

NDZ018>021-031>035-040>046-180100-
SOUTHWEST NORTH DAKOTA

CITY           SKY/WX    TMP DP  RH WIND       PRES   REMARKS
BISMARCK       PTCLDY    70  52  52 E9        29.96S
6HR MIN TEMP:  68; 6HR MAX TEMP:  76;

DICKINSON      CLEAR     68  46  45 SE8       29.94R
GARRISON         N/A     69  46  43 E8        29.95F
6HR MIN TEMP:  69; 6HR MAX TEMP:  74;

HETTINGER ARPT MOCLDY    65  52  62 E9        29.95R
$$

NDZ004>008-012>016-024-026-027-054-180100-
NORTHEAST NORTH DAKOTA

CITY           SKY/WX    TMP DP  RH WIND       PRES   REMARKS
GRAND FORKS    CLEAR     61  46  57 NE10      30.02R
GRND FRKS AFB  CLEAR     60  48  63 NE7       30.03R
DEVILS LAKE    CLEAR     57  43  58 E9        30.02R
$$

NDZ022-023-025-028>030-036>039-047>053-180100-
SOUTHEAST NORTH DAKOTA

CITY           SKY/WX    TMP DP  RH WIND       PRES   REMARKS
FARGO          CLEAR     68  52  56 N9        29.97S
6HR MIN TEMP:  68; 6HR MAX TEMP:  74;

JAMESTOWN      CLEAR     65  52  62 E8        29.99R
$$



USA.gov is the U.S. government's official web portal to all federal, state and local government web resources and services.